Regional Weather Roundup
Issued by NWS New Orleans/Baton Rouge, LA

Home | Current Version | Previous Version | Text Only | Print | Product List | Glossary Off
Versions: 1 2 3 4 5 6 7 8 9 10 11 12 13 14 15 16 17 18 19 20 21 22 23 24 25 26 27 28 29 30 31 32 33 34 35 36 37 38 39 40 41 42 43 44 45 46 47 48 49 50

681
ASUS44 KLIX 310505
RWRLIX
NEW ORLEANS REGIONAL WEATHER ROUNDUP
NATIONAL WEATHER SERVICE NEW ORLEANS LA
1200 AM CDT FRI OCT 31 2014

NOTE: "FAIR" INDICATES FEW OR NO CLOUDS BELOW 12,000 FEET WITH NO
      SIGNIFICANT WEATHER AND/OR OBSTRUCTIONS TO VISIBILITY.
      SKY/WX - SKY CONDITION AND SIGNIFICANT WEATHER.
      TMP - AIR TEMPERATURE.     DP    - DEWPOINT TEMPERATURE.
      RH  - RELATIVE HUMIDITY.   PRES  - PRESSURE.
      HI  - HEAT INDEX.          WCI   - WIND CHILL INDEX.

*  THESE STATIONS ARE NOT NWS OR FAA STATIONS AND ARE NOT UNDER
   NWS QUALITY CONTROL.

LAZ038-040-048-061>063-065>067-069-310600-
SOUTHEAST LOUISIANA

CITY           SKY/WX    TMP DP  RH WIND       PRES   REMARKS
N.O. AUDUBON     N/A     59  56  89 MISG        N/A
N.O. INTL ARPT CLEAR     56  49  77 W6        30.05S
N.O. LAKEFRONT CLEAR     68  46  45 N10       30.05S
N.O. DOWNTOWN*   N/A     66  41  39 N3        30.05F
SLIDELL        CLEAR     48  44  86 CALM      30.05S
BATON ROUGE    CLEAR     51  48  89 CALM      30.07S
BOOTHVILLE     CLEAR     63  52  67 CALM      30.04F
BELLE CHASSE   CLEAR     52  47  83 CALM      30.05R
BOGALUSA*        N/A     46  43  88 CALM      30.07S
NEW ROADS*       N/A     50  47  92 CALM      30.08S
GONZALES*        N/A     52  52  99 CALM      30.07S
HAMMOND*       CLEAR     50  45  81 CALM      30.08S
HOUMA*         CLEAR     52  51  97 CALM      30.06S
PORT FOURCHON* CLEAR     64  52  63 NW6       30.08F

$$

MSZ070-080>082-310600-
SOUTHERN MISSISSIPPI

CITY           SKY/WX    TMP DP  RH WIND       PRES   REMARKS
MCCOMB         CLEAR     49  43  80 NW3       30.07S
GULFPORT       CLEAR     51  45  79 CALM      30.03F
BILOXI         CLEAR     57  44  62 CALM      30.03F
PASCAGOULA     CLEAR     43  42  97 CALM      30.04S

$$

COASTAL OBSERVATIONS
LAKE AND NEARSHORE STATIONS

STATION/POSITION TIME  TEMP    WIND        PRES    WAVE
                       AIR SEA DIR/SP/G            HT/PER
                 (UTC) (F)     (DEG/KT/KT) (MB)    (FT/S)
PASCAGOULA       0500   56     350/  6/  6 1016.5
WAVELAND YACHT   0500   62     320/  5/  6 1016.4
GRAND ISLE       0500   70 74  360/  8/  9 1017.8
SOUTHWEST PASS   0500   69 77              1017.4
NEW CANAL        0500   70 70   20/  6/  8 1017.8
SHELL BEACH      0500   70 68   20/ 10/ 11 1017.1

OFFSHORE STATIONS

STATION/POSITION TIME  TEMP    WIND        PRES    WAVE
                       AIR SEA DIR/SP/G            HT/PER
                 (UTC) (F)     (DEG/KT/KT) (MB)    (FT/S)
64 S DAUPHIN ISL 0420   70 78  360/ 14/ 16 1016.8    3/ 6

$$




USA.gov is the U.S. government's official web portal to all federal, state and local government web resources and services.